Weather History for Mandan, ND

Change the Weather History Date:

Thursday, April 3, 2014

  Actual Average (KBIS) Record (KBIS)
Temperature  
Mean Temperature 28 °F 38 °F  
Max Temperature 32 °F 51 °F 82 °F (1921)
Min Temperature 24 °F 26 °F -7 °F (1975)
Degree Days  
Heating Degree Days 37 27  
Month to date heating degree days 82  
Since 1 July heating degree days 7601  
Cooling Degree Days 0 0  
Month to date cooling degree days 0  
Year to date cooling degree days 0  
Moisture  
Dew Point 25 °F    
Average Humidity 89    
Maximum Humidity 100    
Minimum Humidity 75    
Precipitation  
Precipitation 0.08 in 0.03 in 0.60 in (1946)
Month to date precipitation 0.10  
Year to date precipitation 1.91  
Snow  
Snow 0.00 in 0.20 in 11.90 in (1937)
Month to date snowfall 0.7  
Since 1 July snowfall 47.3  
Snow Depth -    
Sea Level Pressure  
Sea Level Pressure 29.99 in    
Wind  
Wind Speed 9 mph (NNE)    
Max Wind Speed 16 mph    
Max Gust Speed 20 mph    
Visibility 6 miles    
Events Fog , Snow    
T = Trace of Precipitation, MM = Missing Value Source: NWS Daily Summary

Daily Weather History Graph

Daily Weather History Graph

Search for Another Location

Airport:

Trip Planner

Search our weather history database for the weather conditions in past years. The results will help you decide how hot, cold, wet, or windy it might be!

Date:

Astronomy

Apr. 03, 2014 Rise Set
Actual Time 7:18 AM CDT 8:15 PM CDT
Civil Twilight 6:48 AM CDT 8:46 PM CDT
Nautical Twilight 6:11 AM CDT 9:23 PM CDT
Astronomical Twilight 5:32 AM CDT 10:02 PM CDT
Moon 9:37 AM CDT (4/3) No Moon Set
Length of Visible Light 13h 58m
Length of Day
12h 56m
Waxing Crescent, 17% of the Moon is Illuminated
Apr 3
Waxing Crescent
Apr 7
First Quarter
Apr 15
Full
Apr 22
Last Quarter
Apr 29
New

Hourly Weather History & Observations

Time (CDT) Temp. Windchill Dew Point Humidity Pressure Visibility Wind Dir Wind Speed Gust Speed Precip Events Conditions
12:15 AM 24.8 °F 14.0 °F 23.0 °F 93% 30.00 in 5.0 mi East 11.5 mph - N/A Snow Light Snow
12:55 AM 24.8 °F 16.1 °F 23.0 °F 93% 30.00 in 5.0 mi East 8.1 mph - N/A   Overcast
1:15 AM 24.8 °F 16.1 °F 23.0 °F 93% 30.00 in 6.0 mi East 8.1 mph - N/A   Overcast
1:35 AM 24.8 °F 15.3 °F 24.8 °F 100% 30.00 in 6.0 mi East 9.2 mph - N/A Snow Light Snow
1:55 AM 24.8 °F 16.1 °F 24.8 °F 100% 29.99 in 5.0 mi East 8.1 mph - N/A Snow Light Snow
2:15 AM 24.8 °F 17.9 °F 23.0 °F 93% 29.99 in 5.0 mi East 5.8 mph - N/A   Overcast
2:35 AM 24.8 °F 16.1 °F 23.0 °F 93% 29.99 in 3.0 mi East 8.1 mph - N/A Snow Light Snow
2:55 AM 24.8 °F 16.1 °F 23.0 °F 93% 29.98 in 3.0 mi East 8.1 mph - 0.01 in   Overcast
3:15 AM 24.8 °F 16.9 °F 23.0 °F 93% 29.97 in 2.5 mi East 6.9 mph - N/A   Overcast
3:35 AM 24.8 °F 14.6 °F 23.0 °F 93% 29.96 in 2.5 mi East 10.4 mph - N/A Snow Light Snow
3:55 AM 24.8 °F 16.1 °F 23.0 °F 93% 29.98 in 2.5 mi East 8.1 mph - N/A Snow Light Snow
4:15 AM 24.8 °F 16.9 °F 24.8 °F 100% 29.97 in 2.0 mi East 6.9 mph - N/A Snow Light Snow
4:35 AM 24.8 °F 17.9 °F 24.8 °F 100% 29.96 in 1.8 mi East 5.8 mph - N/A   Overcast
4:55 AM 24.8 °F 17.9 °F 24.8 °F 100% 29.96 in 1.8 mi East 5.8 mph - N/A   Overcast
5:15 AM 24.8 °F 16.1 °F 24.8 °F 100% 29.95 in 1.8 mi East 8.1 mph - N/A   Overcast
5:35 AM 24.8 °F 16.1 °F 24.8 °F 100% 29.95 in 1.2 mi East 8.1 mph - N/A   Overcast
5:55 AM 24.8 °F 16.1 °F 24.8 °F 100% 29.94 in 1.0 mi East 8.1 mph - N/A   Overcast
6:15 AM 24.8 °F 16.1 °F 24.8 °F 100% 29.94 in 0.8 mi East 8.1 mph - N/A   Overcast
6:35 AM 24.8 °F 16.1 °F 24.8 °F 100% 29.94 in 0.8 mi East 8.1 mph - N/A   Overcast
6:55 AM 24.8 °F 16.9 °F 24.8 °F 100% 29.94 in 0.5 mi East 6.9 mph - N/A Fog Light Freezing Fog
7:15 AM 24.8 °F 16.9 °F 24.8 °F 100% 29.95 in 0.8 mi East 6.9 mph - N/A   Overcast
7:35 AM 24.8 °F 16.9 °F 24.8 °F 100% 29.96 in 0.8 mi East 6.9 mph - N/A   Overcast
7:55 AM 24.8 °F 16.1 °F 24.8 °F 100% 29.97 in 0.5 mi East 8.1 mph - N/A   Overcast
8:15 AM 24.8 °F 16.9 °F 24.8 °F 100% 29.97 in 0.5 mi East 6.9 mph - N/A Fog Light Freezing Fog
8:35 AM 24.8 °F 17.9 °F 24.8 °F 100% 29.97 in 0.8 mi East 5.8 mph - N/A   Overcast
8:55 AM 24.8 °F 17.9 °F 24.8 °F 100% 29.97 in 0.8 mi East 5.8 mph - N/A Snow Light Snow
9:15 AM 26.6 °F 22.6 °F 24.8 °F 93% 29.97 in 1.0 mi NE 3.5 mph - N/A Snow Light Snow
9:35 AM 26.6 °F - 24.8 °F 93% 29.97 in 2.0 mi Calm Calm - 0.01 in Snow Light Snow
9:55 AM 26.6 °F - 26.6 °F 100% 29.97 in 2.5 mi Calm Calm - 0.03 in Snow Light Snow
10:15 AM 26.6 °F - 26.6 °F 100% 29.97 in 4.0 mi Calm Calm - N/A Snow Light Snow
10:35 AM 26.6 °F - 26.6 °F 100% 29.97 in 5.0 mi Calm Calm - N/A Snow Light Snow
10:55 AM 26.6 °F - 26.6 °F 100% 29.97 in 5.0 mi Calm Calm - N/A Snow Light Snow
11:15 AM 28.4 °F - 28.4 °F 100% 29.98 in 4.0 mi Calm Calm - N/A Snow Light Snow
11:35 AM 30.2 °F 25.4 °F 28.4 °F 93% 29.97 in 5.0 mi NW 4.6 mph - N/A Snow Light Snow
11:55 AM 28.4 °F 22.2 °F 26.6 °F 93% 29.98 in 4.0 mi NW 5.8 mph - 0.01 in Snow Light Snow
12:15 PM 28.4 °F 20.4 °F 26.6 °F 93% 29.98 in 3.0 mi WNW 8.1 mph - 0.01 in Snow Light Snow
12:35 PM 28.4 °F 19.1 °F 26.6 °F 93% 29.98 in 5.0 mi WNW 10.4 mph - 0.03 in Snow Light Snow
12:55 PM 30.2 °F 21.3 °F 26.6 °F 86% 29.99 in 10.0 mi NW 10.4 mph - 0.03 in   Mostly Cloudy
1:15 PM 30.2 °F 20.8 °F 26.6 °F 86% 29.98 in 9.0 mi NW 11.5 mph - N/A   Overcast
1:35 PM 32.0 °F 23.0 °F 26.6 °F 80% 29.98 in 10.0 mi NNW 11.5 mph - N/A   Overcast
1:55 PM 32.0 °F 22.5 °F 26.6 °F 80% 29.98 in 10.0 mi NNW 12.7 mph - N/A   Overcast
2:15 PM 32.0 °F 23.0 °F 24.8 °F 75% 29.99 in 10.0 mi NNW 11.5 mph - N/A   Overcast
2:35 PM 32.0 °F 23.0 °F 24.8 °F 75% 29.99 in 10.0 mi NW 11.5 mph - N/A   Overcast
2:55 PM 32.0 °F 23.0 °F 24.8 °F 75% 29.99 in 10.0 mi NW 11.5 mph - N/A   Overcast
3:15 PM 32.0 °F 22.5 °F 24.8 °F 75% 29.99 in 10.0 mi NW 12.7 mph - N/A   Overcast
3:35 PM 32.0 °F 22.5 °F 24.8 °F 75% 29.99 in 10.0 mi NNW 12.7 mph - N/A   Overcast
3:55 PM 32.0 °F 22.5 °F 24.8 °F 75% 29.99 in 10.0 mi NNW 12.7 mph - N/A   Overcast
4:15 PM 32.0 °F 22.1 °F 24.8 °F 75% 30.00 in 10.0 mi NNW 13.8 mph - N/A   Overcast
4:35 PM 32.0 °F 21.6 °F 24.8 °F 75% 30.00 in 10.0 mi NNW 15.0 mph - N/A   Overcast
4:55 PM 32.0 °F 21.2 °F 24.8 °F 75% 30.00 in 10.0 mi NNW 16.1 mph - N/A   Overcast
5:15 PM 32.0 °F 21.2 °F 24.8 °F 75% 30.00 in 10.0 mi NNW 16.1 mph - N/A   Overcast
5:35 PM 32.0 °F 21.6 °F 24.8 °F 75% 30.01 in 10.0 mi NNW 15.0 mph 19.6 mph N/A   Overcast
5:55 PM 32.0 °F 22.1 °F 24.8 °F 75% 30.01 in 10.0 mi NNW 13.8 mph - N/A   Overcast
6:15 PM 32.0 °F 23.0 °F 24.8 °F 75% 30.01 in 10.0 mi NNW 11.5 mph - N/A   Overcast
6:35 PM 32.0 °F 24.2 °F 24.8 °F 75% 30.02 in 10.0 mi NNW 9.2 mph - N/A   Overcast
6:55 PM 32.0 °F 22.5 °F 24.8 °F 75% 30.03 in 10.0 mi NNW 12.7 mph - N/A   Overcast
7:15 PM 32.0 °F 22.1 °F 26.6 °F 80% 30.03 in 10.0 mi NNW 13.8 mph - N/A   Overcast
7:35 PM 32.0 °F 23.0 °F 26.6 °F 80% 30.03 in 10.0 mi North 11.5 mph - N/A   Overcast
7:55 PM 32.0 °F 23.6 °F 26.6 °F 80% 30.04 in 10.0 mi North 10.4 mph - N/A   Overcast
8:15 PM 32.0 °F 23.0 °F 26.6 °F 80% 30.04 in 10.0 mi North 11.5 mph - N/A   Overcast
8:55 PM 32.0 °F 22.5 °F 24.8 °F 75% 30.04 in 10.0 mi North 12.7 mph - N/A   Overcast
9:15 PM 32.0 °F 22.5 °F 24.8 °F 75% 30.05 in 10.0 mi North 12.7 mph - N/A   Overcast
9:35 PM 32.0 °F 23.6 °F 24.8 °F 75% 30.05 in 10.0 mi North 10.4 mph - N/A   Overcast
11:15 PM 30.2 °F 21.9 °F 26.6 °F 86% 30.06 in 10.0 mi NNW 9.2 mph - N/A   Overcast
11:35 PM 30.2 °F 21.3 °F 26.6 °F 86% 30.06 in 10.0 mi North 10.4 mph - N/A   Overcast
11:55 PM 30.2 °F 19.8 °F 24.8 °F 80% 30.06 in 10.0 mi North 13.8 mph - N/A   Overcast